Regional Weather Roundup
Issued by NWS

Home | Current Version | Previous Version | Text Only | Print | Product List | Glossary Off
Versions: 1 2 3 4 5 6 7 8 9 10 11 12 13 14 15 16 17 18 19 20 21 22 23 24 25 26 27 28 29 30 31 32 33 34 35 36 37 38 39 40 41 42 43 44 45 46 47 48 49 50

015
ASUS44 KLIX 201610
RWRLA
LOUISIANA WEATHER ROUNDUP
NATIONAL WEATHER SERVICE NEW ORLEANS LA
1100 AM CDT WED AUG 20 2014

NOTE: "FAIR" INDICATES FEW OR NO CLOUDS BELOW 12,000 FEET WITH NO
      SIGNIFICANT WEATHER AND/OR OBSTRUCTIONS TO VISIBILITY.
      SKY/WX - SKY CONDITION AND SIGNIFICANT WEATHER.
      TMP - AIR TEMPERATURE.    DP   - DEWPOINT TEMPERATURE.
      RH  - RELATIVE HUMIDITY.  PRES - PRESSURE.
      HX  - HEAT INDEX.         WCI  - WIND CHILL INDEX.

*  THESE STATIONS ARE NOT NWS OR FAA STATIONS AND ARE NOT UNDER
   NWS QUALITY CONTROL.

LAZ040-048-061>063-065-066-069-201700-
SOUTHEAST LOUISIANA

CITY           SKY/WX    TMP DP  RH WIND       PRES   REMARKS
N.O. AUDUBON     N/A     93  75  55 MISG        N/A  HX 104
N.O. INTL ARPT PTSUNNY   89  76  65 S6        30.08R HX 100
N.O. LAKEFRONT MOSUNNY  N/A N/A N/A N7        30.09R
N.O. DOWNTOWN* FAIR      88  73  62 SW3       30.09S HX  96
SLIDELL        SUNNY     89  74  60 W6        30.08S HX  98
BATON ROUGE    PTSUNNY   88  75  65 CALM      30.07S HX  97
BOOTHVILLE     SUNNY     89  77  67 VRB6      30.10R HX 101
BELLE CHASSE   PTSUNNY   89  75  63 SW6       30.08R HX  99
BOGALUSA*      FAIR      89  73  60 CALM      30.11S HX  96
GALLIANO*      NOT AVBL
NEW ROADS*     FAIR      87  77  72 CALM      30.07S HX  99
GONZALES*      FAIR      88  78  73 CALM      30.07S HX 102
HAMMOND*       MOSUNNY   91  72  52 S3        30.10S HX  98
HOUMA*         MOSUNNY   91  73  55 S5        30.07S HX 100
PORT FOURCHON* MOSUNNY   90  77  66 SW8       30.10R HX 102

$$

LAZ041-044-053-054-201700-
SOUTHWEST LOUISIANA

CITY           SKY/WX    TMP DP  RH WIND       PRES   REMARKS
LAKE CHARLES   PTSUNNY   88  77  69 S7        30.04R HX 100
LAFAYETTE      MOSUNNY   88  77  69 VRB3      30.06R HX 100
PATTERSON      MOSUNNY  N/A N/A N/A MISG        N/A
SALT POINT       N/A     92  78  63 VRB3      30.06R HX 107
NEW IBERIA     MOSUNNY   90  77  65 S8        30.07R HX 103
CHENAULT AIRPK PTSUNNY   88  77  70 SE6       30.05R HX 100

$$

LAZ027-028-201700-
CENTRAL LOUISIANA

CITY           SKY/WX    TMP DP  RH WIND       PRES   REMARKS
FORT POLK      MOSUNNY   86  75  69 S7        30.05R HX  95
ALEXANDRIA INT PTSUNNY   86  75  69 CALM      30.04S HX  95
ALEXANDRIA     MOSUNNY   88  76  67 SW6       30.06S HX  99

$$

LAZ001-002-201700-
NORTHWEST LOUISIANA

CITY           SKY/WX    TMP DP  RH WIND       PRES   REMARKS
SHREVEPORT     MOSUNNY   88  73  61 SW6       30.03R HX  95
BARKSDALE AFB  SUNNY     87  73  62 SW9       30.04R
DTN SHREVEPORT SUNNY     87  72  60 W8        30.04R

$$

LAZ014-016-201700-
NORTHEAST LOUISIANA

CITY           SKY/WX    TMP DP  RH WIND       PRES   REMARKS
MONROE         MOSUNNY   84  73  69 S3        30.08R
TALLULAH       MOSUNNY   86  72  62 VRB3      30.08S

$$




USA.gov is the U.S. government's official web portal to all federal, state and local government web resources and services.